Simultaneous Nadir Overpasses (SNOs) Predictions

Prediction of SNOs between GOES-16 and TERRA Satellite Orbit:

Table of predicted SNOs for the next 14.0 days since TLE Epoch: 2/4/2023
Index Date Time (GOES-16) GOES-16 Lat,Lon TERRA Lat,Lon Distance(km) Time Diff (sec)
1 02/05/2023 14:57:06 0.02, -75.20 -0.64, -72.02 361.43 80
2 02/06/2023 03:20:14 -0.03, -75.19 -0.40, -76.99 204.72 80
3 02/08/2023 03:01:42 -0.03, -75.21 0.43, -73.16 233.12 80
4 02/08/2023 15:22:00 0.03, -75.23 0.61, -78.09 325.25 80
5 02/10/2023 15:06:07 0.03, -75.25 -0.17, -74.25 113.44 80
6 02/11/2023 03:29:15 -0.03, -75.24 -0.85, -79.23 452.17 80
7 02/13/2023 03:13:22 -0.03, -75.27 -0.05, -75.39 13.24 80
8 02/15/2023 02:54:49 -0.02, -75.29 0.78, -71.55 425.79 80
9 02/15/2023 15:15:07 0.03, -75.31 0.25, -76.48 132.53 80
10 02/17/2023 15:01:53 0.02, -75.34 -0.53, -72.64 306.91 80
11 02/18/2023 03:22:21 -0.02, -75.34 -0.48, -77.61 258.47 80
